SCP
0 0 0 0 0 0 0 0 0 0 0 0 0 0 0 0 0 0 0 0 0 0 0 0 0 0 0 0 0 0 0 0 0 0 1 1 1 1 1 1 1 1 1 0 0 0 0 0 0
0 0 0 0 0 0 0 0 0 0 0 0 0 0 0 0 0 0 0 0 0 0 0 0 0 0 0 0 0 0 0 0 0 0 1 1 1 1 1 1 1 1 0 0 0 0 0 0 0
0 0 0 0 0 0 0 0 0 0 0 0 0 0 0 0 0 0 0 0 0 0 0 0 0 0 1 1 0 0 0 0 1 1 1 0 1 1 1 1 1 1 0 0 0 0 0 0 0
0 0 0 0 0 0 0 0 0 0 0 0 0 0 0 0 0 0 0 0 0 0 0 0 0 0 1 1 1 1 0 1 1 1 1 0 1 1 1 1 1 0 0 0 0 0 0 0 0
0 0 0 0 0 0 0 0 0 0 0 0 0 0 0 0 0 0 0 0 0 0 0 0 1 1 1 1 1 1 1 1 1 1 1 0 1 1 1 1 0 0 0 0 0 0 0 1 1
0 0 0 0 0 0 0 0 0 0 0 0 0 0 0 0 0 0 0 0 0 0 0 1 1 1 1 1 0 1 1 1 1 1 1 0 0 1 1 1 0 0 0 0 0 0 0 1 1
0 0 0 0 0 0 0 0 0 0 0 0 0 0 0 0 0 0 0 0 0 0 0 0 1 1 1 1 0 1 1 1 1 1 1 1 0 0 0 0 0 0 0 0 0 0 0 0 0
0 0 0 0 0 0 0 0 0 0 0 0 0 0 0 0 0 1 1 0 0 0 0 0 0 0 0 0 0 0 1 1 1 1 1 1 0 0 0 0 0 0 0 0 0 0 0 0 0
0 0 0 0 0 0 0 0 0 0 0 1 0 0 0 1 1 1 1 0 0 0 0 0 0 0 0 0 0 0 0 0 0 0 1 1 1 1 0 1 0 0 0 0 0 0 0 0 0
0 0 0 0 0 0 0 0 0 0 0 0 1 1 1 1 1 1 1 0 0 0 0 0 0 0 0 0 0 0 0 0 0 0 0 0 0 0 0 1 1 0 0 0 0 0 0 0 0
0 0 0 0 0 0 0 0 0 0 0 0 1 1 1 1 1 1 1 1 0 0 0 0 0 0 0 0 0 0 0 0 0 0 0 0 0 0 0 0 0 0 0 0 0 0 0 0 0
0 0 0 0 0 0 0 0 0 0 0 0 1 1 1 1 1 1 1 1 0 0 0 0 0 0 0 0 0 0 0 0 0 0 0 0 0 0 0 0 0 0 0 0 0 0 0 0 0
0 0 0 0 0 0 0 0 0 0 0 0 1 1 1 1 1 1 1 1 0 0 0 0 0 0 0 0 0 0 0 0 0 0 0 0 0 0 0 0 0 0 0 0 0 0 0 0 0
0 0 0 0 0 0 0 0 0 0 0 0 1 1 1 1 1 1 0 0 0 0 0 0 0 0 0 0 0 0 0 0 0 0 0 0 0 0 0 0 0 0 0 0 0 0 0 0 0
0 0 0 0 0 0 0 0 0 0 0 0 1 1 1 0 0 0 0 0 0 0 0 0 0 0 0 0 0 0 0 0 0 0 0 0 0 0 0 0 0 0 0 0 0 0 0 0 0
0 0 0 0 0 0 0 0 0 0 0 0 0 0 0 0 0 0 0 0 0 0 0 0 0 0 0 0 0 0 0 0 0 0 0 0 0 0 0 0 0 0 0 0 0 0 0 0 0
0 0 0 0 0 0 0 0 0 0 0 0 0 0 0 0 0 0 0 0 0 0 0 0 0 1 0 0 0 0 0 0 0 0 0 0 0 0 0 0 0 0 0 0 0 0 0 0 0
0 0 0 0 0 0 0 0 0 0 0 0 0 0 0 0 0 0 0 1 1 0 0 1 1 1 1 0 0 0 0 0 0 0 0 0 0 0 0 0 0 0 0 0 0 0 0 0 0
0 0 0 0 0 0 0 0 0 0 0 0 0 0 0 0 0 0 1 1 1 1 1 1 1 1 1 1 0 0 0 0 0 0 0 0 0 0 0 0 0 0 0 0 0 0 0 0 0
0 0 0 0 0 0 0 0 0 0 0 0 0 0 0 0 0 1 1 1 1 1 1 1 1 1 1 0 0 0 0 0 0 0 0 0 0 0 0 0 0 0 0 0 0 0 0 0 0
0 0 0 0 0 0 0 0 0 0 0 0 0 0 0 0 0 0 1 1 1 1 1 1 1 1 1 0 0 0 0 0 0 0 0 0 0 0 0 0 0 0 0 0 0 0 0 0 0
0 0 0 0 0 0 0 0 0 0 0 0 0 0 0 0 0 0 0 0 0 1 1 1 1 1 0 0 0 0 0 0 0 0 0 0 0 0 0 0 0 0 0 0 0 0 0 0 0
0 0 0 0 0 0 0 0 0 0 0 0 0 0 0 0 0 0 0 0 0 0 1 1 1 0 0 0 0 0 0 0 0 0 0 0 0 0 0 0 0 0 0 0 0 0 0 0 0
0 0 0 0 0 0 0 0 0 0 0 0 0 0 0 0 0 0 0 0 0 0 0 0 0 0 0 0 0 0 0 0 0 0 0 0 0 0 0 0 0 0 0 0 0 0 0 0 0
0 0 0 0 0 0 0 0 0 0 0 0 0 0 0 0 0 0 0 0 0 0 0 0 0 0 0 0 0 0 0 0 0 0 0 0 0 0 0 0 0 0 0 0 0 0 0 0 0
0 0 0 0 0 0 0 0 0 0 0 0 0 0 0 0 0 0 0 0 0 0 0 0 0 0 0 0 0 0 0 0 0 0 0 0 0 0 0 0 0 0 0 0 0 0 0 0 0
0 0 0 0 0 0 0 0 0 0 0 0 0 0 0 0 0 0 0 0 0 0 0 0 0 0 0 0 0 0 0 0 0 0 0 0 0 0 0 0 0 0 0 0 0 0 0 0 0
0 0 0 0 0 0 0 0 0 0 0 0 0 0 0 0 0 0 0 0 0 0 0 0 0 0 0 0 0 0 0 0 0 0 0 0 0 0 0 0 0 0 0 0 0 0 0 0 0
0 0 0 0 0 0 0 0 0 0 0 0 0 0 0 0 0 0 0 0 0 0 0 0 0 0 0 0 0 0 0 0 0 0 0 0 0 0 0 0 0 0 0 0 0 0 0 0 0
0 0 0 0 0 0 0 0 0 0 0 0 0 0 0 0 0 0 0 0 0 0 0 0 0 0 0 0 0 0 0 0 0 0 0 0 0 0 0 0 0 0 0 0 0 0 0 0 0
Wind_Speed
3 2 3 4 5 5 2 1 0 1 2 2 3 5 5 3 2 2 1 3 3 2 1 3 5 6 6 6 6 6 7 7 7 7 8 8 8 8 8 9 9 9 9 9 9 8 9 9 8
1 1 4 5 5 3 2 2 1 0 3 3 4 4 4 3 2 3 1 2 3 3 2 2 5 6 6 6 6 6 6 6 6 7 7 7 8 8 8 9 9 9 9 8 8 8 8 8 8
1 2 4 5 4 3 1 1 1 2 2 2 3 4 3 2 2 2 2 4 4 3 2 2 5 5 6 5 6 6 6 6 6 7 7 7 7 8 8 9 9 9 9 8 8 8 8 8 8
3 4 5 5 3 1 2 1 1 3 3 4 3 3 2 2 2 3 5 5 4 3 2 2 5 5 5 5 5 6 6 6 6 7 6 7 7 8 8 8 8 8 8 8 8 8 8 9 9
4 4 5 3 1 1 0 1 1 2 2 3 3 3 2 3 3 6 6 5 4 3 2 1 4 5 5 5 4 5 5 6 6 6 6 6 7 7 8 8 8 8 8 8 8 8 9 9 9
5 5 5 2 1 2 1 0 2 2 2 2 3 3 1 1 4 4 4 3 3 3 2 1 3 4 4 4 3 4 4 5 5 5 5 5 6 6 7 7 7 7 7 7 8 8 8 8 8
4 4 3 2 1 1 0 1 3 3 2 2 3 3 1 1 2 4 4 3 3 3 2 2 1 1 2 2 2 2 3 3 4 4 5 5 5 5 6 6 6 6 6 6 7 7 8 8 8
4 5 3 1 1 1 1 1 1 3 2 2 3 4 3 3 4 5 4 3 2 2 2 1 2 2 2 1 1 1 2 2 3 4 4 5 5 5 5 4 5 5 6 6 7 8 8 8 9
4 5 2 2 3 1 1 2 1 2 4 2 1 2 3 7 7 6 3 2 1 1 1 1 1 1 1 1 1 1 1 2 3 3 4 4 3 3 3 4 5 6 6 7 8 8 9 9 9
4 3 3 3 3 2 1 2 2 3 2 1 2 3 6 7 7 6 4 3 2 2 1 1 0 0 1 1 1 2 2 3 3 3 3 3 2 2 3 5 6 6 7 8 8 8 8 7 4
3 3 2 1 2 3 3 2 2 4 1 3 4 5 7 6 5 5 4 3 3 2 1 1 1 1 0 0 1 1 1 1 2 2 2 2 2 2 2 2 3 4 5 4 5 5 4 4 3
2 0 1 1 2 3 3 3 2 2 4 3 5 8 7 6 6 5 4 3 2 2 2 1 2 1 1 1 1 1 1 1 1 1 1 2 1 2 1 1 2 2 2 2 3 3 3 4 4
2 0 1 1 3 3 4 3 3 1 1 4 6 6 6 6 4 3 3 2 2 2 2 2 2 2 1 1 1 1 1 1 1 1 1 2 2 1 1 1 2 2 2 2 2 3 3 3 4
1 1 1 2 2 1 4 1 2 2 2 5 6 5 5 4 4 3 2 2 2 2 2 1 1 2 2 2 2 2 1 1 1 1 1 1 2 2 2 2 2 2 2 2 2 3 3 2 3
2 2 4 2 1 0 3 3 1 2 3 4 4 3 3 3 2 3 4 3 3 2 2 1 2 1 2 2 2 2 1 1 1 1 1 1 2 2 2 2 2 1 2 2 3 3 3 3 3
3 4 2 3 0 1 4 2 3 0 4 3 2 2 2 2 2 2 3 3 3 2 2 2 2 2 2 2 2 2 2 2 1 1 1 2 2 2 2 2 1 1 2 2 2 2 3 3 3
4 1 1 3 1 1 3 3 3 1 3 3 2 2 2 1 1 1 2 3 3 3 2 2 2 3 3 3 3 2 2 2 1 1 1 2 2 2 2 2 1 2 2 2 2 2 2 2 3
2 1 1 2 1 2 1 3 3 1 3 3 2 2 2 2 3 2 1 2 2 2 3 2 2 3 3 3 3 2 2 2 2 1 1 2 2 3 3 2 2 2 2 2 2 3 2 2 2
3 2 2 3 1 2 2 3 4 1 1 2 2 3 3 4 2 1 1 2 2 2 2 2 2 2 2 2 2 1 1 1 1 1 1 2 2 3 3 2 2 2 2 2 3 3 3 2 2
2 1 1 2 1 2 1 2 3 1 3 4 4 4 4 3 1 1 1 2 2 2 1 2 2 2 2 2 1 1 1 1 1 1 1 1 2 2 2 3 2 2 2 3 3 3 2 1 1
1 3 3 2 2 3 2 4 3 2 2 1 2 2 2 3 3 2 2 2 2 2 2 2 2 2 2 2 2 2 2 2 1 1 1 1 1 2 2 3 3 2 3 3 2 3 3 2 0
3 3 3 2 2 2 1 2 5 3 3 2 2 1 2 2 2 2 2 2 2 2 2 1 2 2 2 3 3 3 2 2 1 1 0 1 1 1 2 3 3 2 2 3 2 2 2 3 1
3 1 2 2 3 1 2 1 6 2 3 4 4 3 2 2 2 2 2 2 2 2 2 1 1 1 2 2 3 3 2 1 1 1 1 1 1 1 2 2 2 2 2 2 2 2 2 2 2
3 5 5 5 4 1 2 2 6 3 4 4 4 3 2 1 1 1 0 1 0 0 1 1 1 1 1 2 2 3 3 2 2 1 1 1 0 1 1 1 2 2 1 2 2 2 2 2 2
5 6 4 5 4 3 2 2 7 5 4 4 4 3 2 1 1 1 1 1 1 0 0 1 2 1 1 2 2 2 3 4 4 3 2 1 1 0 1 1 1 1 1 1 2 1 1 1 2
2 6 6 3 3 4 2 3 6 3 2 2 2 2 2 1 1 1 2 1 1 1 1 1 1 1 1 1 2 1 2 2 2 2 2 2 1 1 1 1 1 1 1 1 2 1 1 1 1
4 2 4 6 1 1 4 5 6 1 2 1 1 1 2 2 2 1 1 1 1 1 1 2 2 1 1 2 2 2 2 2 2 2 2 2 1 1 1 1 1 1 1 1 1 1 1 1 1
4 7 5 4 3 2 4 4 4 4 4 2 1 2 3 2 2 1 1 1 1 1 1 1 1 2 2 2 2 2 2 3 2 2 2 2 2 1 2 2 1 1 1 1 1 1 1 1 1
3 3 4 4 4 4 3 6 4 5 4 4 4 4 3 2 3 2 1 1 1 1 1 1 1 1 0 1 1 1 1 2 2 2 2 2 2 2 2 2 2 2 2 1 1 1 1 1 1
3 4 6 4 3 3 3 8 4 3 3 3 3 3 2 2 2 1 1 1 1 1 1 1 1 0 0 1 1 1 0 1 1 2 2 2 2 2 2 2 2 2 2 2 2 2 1 2 2
Wind_Direction
359 45 78 58 54 51 45 337 248 31 50 40 58 73 86 82 95 143 250 128 124 126 133 139 131 119 114 110 107 106 105 106 104 102 96 94 91 89 90 91 90 87 84 81 78 77 75 73 72
34 65 58 61 77 68 346 328 49 83 140 139 74 71 70 67 71 110 120 137 123 130 121 131 133 124 116 110 108 106 104 104 103 101 96 94 92 90 89 88 86 85 82 79 77 75 73 71 67
71 58 77 70 84 143 183 286 138 85 101 94 72 58 78 97 123 157 165 138 118 119 113 133 133 129 118 108 104 103 103 107 104 101 98 97 96 93 89 87 84 82 79 78 76 73 72 69 68
75 46 55 68 73 212 187 218 145 109 63 51 85 66 56 54 157 150 134 130 121 111 100 135 142 134 118 107 101 99 96 101 107 103 98 97 99 98 95 89 83 80 78 76 74 71 70 69 66
61 73 63 56 26 332 239 210 132 95 68 49 82 84 32 4 92 118 129 129 129 116 94 118 139 135 125 121 115 108 100 98 106 109 104 98 98 97 95 91 83 78 77 75 72 71 71 68 65
56 65 80 88 353 347 359 102 106 82 91 90 94 95 28 45 108 127 129 126 126 122 105 95 135 131 129 127 123 119 108 107 108 111 106 100 97 93 90 87 80 74 72 73 73 73 73 69 65
94 86 107 128 64 359 203 126 124 119 113 136 130 108 86 140 150 129 121 114 102 98 86 58 42 76 101 107 116 117 116 116 111 106 104 99 93 89 83 82 79 76 75 76 75 75 73 69 64
114 96 80 90 132 246 220 114 115 128 123 103 118 138 183 187 143 109 95 90 88 81 72 66 50 47 40 26 90 104 113 112 99 97 90 85 77 71 70 70 73 75 75 75 75 72 69 64 64
85 77 119 188 175 222 179 112 56 70 94 66 72 151 160 131 122 110 97 80 88 131 56 69 50 30 21 4 14 47 64 64 62 69 69 64 49 40 47 64 71 74 75 76 72 70 65 60 58
83 112 203 207 183 172 129 118 136 94 76 56 55 68 110 125 136 144 154 163 187 212 222 204 193 280 344 349 42 31 38 38 47 48 50 52 47 38 47 58 65 70 73 71 68 66 60 56 48
112 159 206 229 184 136 119 92 93 124 186 209 180 153 135 139 151 163 176 182 199 209 216 205 205 212 199 25 43 36 44 46 49 48 56 61 53 45 35 40 46 54 61 57 56 53 50 54 52
108 209 171 191 136 119 133 126 110 158 226 204 159 144 139 152 171 179 184 196 195 194 218 207 186 180 180 142 91 76 75 66 63 55 67 76 71 58 46 52 50 52 61 63 57 60 51 52 53
90 357 61 106 98 114 111 114 133 265 305 108 119 130 149 167 180 182 183 189 186 200 220 204 174 173 160 144 146 118 121 116 107 77 68 93 102 89 73 69 67 61 69 70 68 69 61 52 50
148 75 36 44 74 81 102 53 95 275 104 114 128 150 168 178 183 174 181 192 196 202 208 205 182 175 152 151 146 140 147 140 108 89 95 117 124 123 105 87 73 64 70 76 80 80 72 59 57
79 60 18 11 45 76 95 18 259 247 120 125 143 160 172 194 191 197 197 190 195 195 185 176 179 144 140 144 145 138 134 124 108 91 88 110 115 119 112 98 86 75 76 80 80 72 68 65 58
54 53 12 313 13 64 108 261 284 83 138 152 166 173 183 211 212 220 200 183 178 165 161 172 163 127 130 130 121 111 111 115 106 94 87 93 102 112 109 107 102 93 85 84 88 79 73 61 56
34 57 268 304 326 105 122 237 282 97 150 175 187 200 204 239 283 266 211 190 177 171 159 147 124 122 123 114 101 100 102 98 93 92 95 100 106 115 123 121 114 107 99 90 98 82 89 84 70
230 220 257 271 289 109 149 256 292 242 172 188 202 207 216 225 245 253 215 184 160 151 143 141 119 113 113 102 89 77 67 57 63 74 88 110 119 121 121 117 112 113 107 90 94 94 76 84 84
173 173 240 262 243 139 202 264 286 264 190 197 217 218 226 238 258 235 167 129 119 109 125 135 126 125 119 107 109 103 89 55 45 48 71 90 109 118 119 121 113 110 118 126 119 108 93 81 87
147 154 259 296 2 150 204 283 288 228 220 216 215 223 226 237 261 191 137 122 136 145 152 144 154 152 149 135 125 120 114 105 89 37 49 72 107 123 135 129 128 124 119 111 114 118 115 109 79
207 192 213 231 17 45 69 334 316 301 273 255 242 231 224 213 214 197 167 163 149 168 184 185 187 170 154 127 103 85 69 58 47 32 17 15 102 127 133 135 131 134 136 142 145 145 141 152 147
246 230 199 169 101 311 88 286 292 291 301 288 283 269 248 238 204 185 177 187 199 210 194 181 179 170 157 145 142 140 142 151 192 178 156 27 62 101 120 131 131 134 136 144 160 147 150 146 160
218 56 103 103 128 47 23 153 288 331 287 274 268 253 240 229 187 185 194 197 199 192 184 177 151 152 153 157 159 151 146 160 153 118 107 69 38 77 106 127 130 138 147 155 156 147 142 149 158
122 67 56 49 70 26 269 173 280 256 237 258 253 245 229 215 166 163 144 106 87 104 145 142 148 142 139 160 163 162 162 158 150 152 140 98 47 45 68 117 126 138 150 165 173 170 161 158 157
73 80 34 9 15 268 278 191 253 264 240 225 225 227 215 186 163 157 145 159 195 234 183 161 160 193 180 160 181 181 176 172 181 185 173 159 144 179 212 140 139 146 168 171 161 163 174 167 160
137 129 146 189 229 283 323 246 260 280 282 239 204 184 164 164 183 190 203 210 220 221 181 158 172 204 195 176 188 176 163 166 185 185 171 178 189 200 173 152 151 154 155 157 150 156 181 159 171
127 131 155 133 149 279 287 292 302 329 344 352 120 133 186 201 198 192 201 201 216 197 202 174 161 177 188 188 181 173 169 172 181 182 170 172 181 172 148 147 144 136 137 144 143 159 181 144 156
124 140 102 112 140 271 294 279 260 270 270 284 246 219 221 210 203 199 190 179 177 176 161 132 145 171 194 190 188 179 184 188 183 166 171 174 176 161 148 147 146 132 131 139 134 153 167 135 145
95 100 106 115 148 160 263 274 237 235 236 234 241 234 219 217 219 209 203 172 134 98 104 111 115 119 147 181 185 173 187 183 167 168 187 192 186 175 172 168 165 164 162 157 153 165 142 143 142
158 160 144 148 208 172 184 268 290 261 257 232 248 253 236 226 218 201 177 137 104 106 112 125 128 106 232 192 162 162 149 156 167 188 203 193 199 199 193 177 175 179 173 166 168 176 162 167 176